Weather History for Cocoa Beach, FL

Change the Weather History Date:

Sunday, March 10, 2013

  Actual Average Record
Temperature  
Mean Temperature 70 °F -  
Max Temperature 74 °F 73 °F 80 °F (1999)
Min Temperature 65 °F 60 °F 48 °F (1998)
Cooling Degree Days 4    
Growing Degree Days 20 (Base 50)    
Moisture  
Dew Point 55 °F    
Average Humidity 61    
Maximum Humidity 68    
Minimum Humidity 51    
Precipitation  
Precipitation 0.00 in - - ()
Sea Level Pressure  
Sea Level Pressure 30.15 in    
Wind  
Wind Speed 10 mph (East)    
Max Wind Speed 15 mph    
Max Gust Speed -    
Visibility 10 miles    
Events      
Averages and records for this station are not official NWS values.
T = Trace of Precipitation, MM = Missing Value Source: NWS Daily Summary

Daily Weather History Graph

Daily Weather History Graph

Search for Another Location

Airport:

Trip Planner

Search our weather history database for the weather conditions in past years. The results will help you decide how hot, cold, wet, or windy it might be!

Date:

Astronomy

Mar. 10, 2013 Rise Set
Actual Time 7:37 AM EDT 7:28 PM EDT
Civil Twilight 7:13 AM EDT 7:51 PM EDT
Nautical Twilight 6:46 AM EDT 8:18 PM EDT
Astronomical Twilight 6:19 AM EDT 8:46 PM EDT
Moon 6:33 AM EDT (3/10) 6:35 PM EDT (3/10)
Length of Visible Light 12h 37m
Length of Day
11h 50m
Waning Crescent, 2% of the Moon is Illuminated
Mar 10
Waning Crescent
Mar 11
New
Mar 19
First Quarter
Mar 27
Full
Apr 3
Last Quarter

Hourly Weather History & Observations

Time (EDT) Temp. Dew Point Humidity Pressure Visibility Wind Dir Wind Speed Gust Speed Precip Events Conditions
12:55 AM 65.7 °F 51.6 °F 60% 30.19 in 10.0 mi ENE 6.9 mph - N/A   Scattered Clouds
1:55 AM 65.7 °F 53.1 °F 64% 30.17 in 10.0 mi ENE 10.4 mph - N/A   Scattered Clouds
3:55 AM 65.8 °F 52.2 °F 61% 30.15 in 10.0 mi ENE 10.4 mph - N/A   Clear
4:55 AM 65.3 °F 52.5 °F 63% 30.13 in 10.0 mi ENE 8.1 mph - N/A   Clear
5:55 AM 66.6 °F 54.0 °F 64% 30.14 in 10.0 mi ENE 8.1 mph - N/A   Overcast
6:55 AM 66.6 °F 52.7 °F 61% 30.15 in 10.0 mi East 9.2 mph - N/A   Scattered Clouds
7:55 AM 65.8 °F 54.1 °F 66% 30.16 in 10.0 mi East 8.1 mph - N/A   Clear
8:55 AM 68.5 °F 55.6 °F 63% 30.17 in 10.0 mi East 9.2 mph - N/A   Scattered Clouds
9:55 AM 69.4 °F 56.7 °F 64% 30.19 in 10.0 mi East 9.2 mph - N/A   Overcast
10:55 AM 72.7 °F 55.6 °F 55% 30.19 in 10.0 mi East 13.8 mph - N/A   Scattered Clouds
11:55 AM 71.8 °F 55.9 °F 57% 30.20 in 10.0 mi ENE 15.0 mph - N/A   Overcast
12:55 PM 74.1 °F 54.9 °F 51% 30.16 in 10.0 mi East 13.8 mph - N/A   Clear
1:55 PM 74.1 °F 55.2 °F 52% 30.15 in 10.0 mi East 13.8 mph - N/A   Clear
2:55 PM 74.3 °F 58.3 °F 57% 30.14 in 10.0 mi East 12.7 mph - N/A   Scattered Clouds
3:55 PM 72.5 °F 56.7 °F 57% 30.14 in 10.0 mi East 13.8 mph - N/A   Overcast
4:55 PM 71.6 °F 55.4 °F 57% 30.13 in 10.0 mi East 13.8 mph - N/A   Mostly Cloudy
5:55 PM 71.4 °F 54.9 °F 56% 30.13 in 10.0 mi East 10.4 mph - N/A   Clear
6:55 PM 69.6 °F 55.6 °F 61% 30.13 in 10.0 mi East 10.4 mph - N/A   Clear
7:55 PM 68.0 °F 56.1 °F 66% 30.14 in 10.0 mi East 8.1 mph - N/A   Clear
8:55 PM 68.4 °F 55.8 °F 64% 30.15 in 10.0 mi East 10.4 mph - N/A   Overcast
9:55 PM 67.6 °F 56.8 °F 68% 30.15 in 10.0 mi East 11.5 mph - N/A   Partly Cloudy
10:55 PM 67.5 °F 55.8 °F 66% 30.16 in 10.0 mi East 11.5 mph - N/A   Clear
11:55 PM 67.5 °F 56.3 °F 67% 30.15 in 10.0 mi East 11.5 mph - N/A   Clear
12:55 AM 67.1 °F 55.2 °F 66% 30.14 in 10.0 mi East 11.5 mph - N/A   Clear